When you browse on this site, cookies collect data to enhance your experience and personalize the content and advertising you see.
Visit our Privacy Policy to learn more. By continuing to use the site, you agree to this use of cookies and data.
  • In Norway
  • List of Countries
  • For 7 days
  • Water Temperature
  • Satellite Maps
  • Weather Map
  • Weather Widgets
  • user-avatar
    Login

    Hourly Weather Newcastle

    Today, 25 March, Monday

    Time Temperature Precipitation Wind Pressure Humidity
    00:00 +24°C° 0 mm 1 mps 757 mmHg 87%
    01:00 +23°C° 0 mm 1 mps 757 mmHg 88%
    02:00 +23°C° 0 mm 1 mps 757 mmHg 88%
    03:00 +23°C° 0 mm 1 mps 756 mmHg 89%
    04:00 +22°C° 0 mm 3 mps 756 mmHg 84%
    05:00 +22°C° 0.2 mm 3 mps 756 mmHg 86%
    06:00 +22°C° 0.2 mm 3 mps 757 mmHg 87%
    07:00 +22°C° 0.2 mm 3 mps 757 mmHg 88%
    08:00 +25°C° 0 mm 3 mps 757 mmHg 78%
    09:00 +27°C° 0 mm 3 mps 757 mmHg 69%
    10:00 +25°C° 0 mm 1 mps 757 mmHg 74%
    11:00 +25°C° 0.4 mm 2 mps 757 mmHg 73%
    12:00 +26°C° 0.4 mm 3 mps 757 mmHg 71%
    13:00 +26°C° 0.4 mm 4 mps 757 mmHg 70%
    14:00 +26°C° 0.5 mm 4 mps 757 mmHg 73%
    15:00 +25°C° 0.5 mm 4 mps 757 mmHg 76%
    16:00 +22°C° 0 mm 3 mps 757 mmHg 83%
    17:00 +22°C° 0.1 mm 3 mps 757 mmHg 81%
    18:00 +24°C° 0.1 mm 3 mps 758 mmHg 80%
    19:00 +23°C° 0.1 mm 4 mps 758 mmHg 78%
    20:00 +22°C° 0 mm 3 mps 758 mmHg 78%
    21:00 +22°C° 0 mm 3 mps 758 mmHg 78%
    22:00 +22°C° 0 mm 4 mps 758 mmHg 80%
    23:00 +22°C° 0 mm 3 mps 758 mmHg 79%

    Tomorrow, 26 March, Tuesday

    Time Temperature Precipitation Wind Pressure Humidity
    00:00 +22°C° 0 mm 3 mps 759 mmHg 79%
    01:00 +22°C° 0 mm 3 mps 759 mmHg 79%
    02:00 +22°C° 0 mm 3 mps 759 mmHg 76%
    03:00 +22°C° 0 mm 3 mps 759 mmHg 74%
    04:00 +22°C° 0 mm 3 mps 759 mmHg 71%
    05:00 +21°C° 0 mm 3 mps 760 mmHg 69%
    06:00 +21°C° 0 mm 3 mps 760 mmHg 67%
    07:00 +20°C° 0 mm 3 mps 761 mmHg 65%
    08:00 +21°C° 0 mm 3 mps 761 mmHg 57%
    09:00 +24°C° 0 mm 3 mps 761 mmHg 49%
    10:00 +25°C° 0 mm 3 mps 762 mmHg 42%
    11:00 +26°C° 0 mm 3 mps 762 mmHg 37%
    12:00 +27°C° 0 mm 3 mps 761 mmHg 33%
    13:00 +29°C° 0 mm 3 mps 761 mmHg 29%
    14:00 +28°C° 0 mm 3 mps 761 mmHg 31%
    15:00 +28°C° 0 mm 4 mps 761 mmHg 33%
    16:00 +27°C° 0 mm 4 mps 761 mmHg 34%
    17:00 +25°C° 0 mm 4 mps 762 mmHg 42%
    18:00 +21°C° 0 mm 4 mps 762 mmHg 49%
    19:00 +19°C° 0 mm 4 mps 763 mmHg 56%
    20:00 +19°C° 0 mm 4 mps 764 mmHg 61%
    21:00 +18°C° 0 mm 4 mps 765 mmHg 65%
    22:00 +18°C° 0 mm 4 mps 765 mmHg 70%
    23:00 +18°C° 0 mm 4 mps 765 mmHg 70%

    Day after tomorrow, 27 March, Wednesday

    Time Temperature Precipitation Wind Pressure Humidity
    00:00 +18°C° 0 mm 3 mps 766 mmHg 70%
    01:00 +17°C° 0 mm 3 mps 766 mmHg 71%
    02:00 +17°C° 0 mm 3 mps 766 mmHg 72%
    03:00 +17°C° 0 mm 3 mps 766 mmHg 73%
    04:00 +17°C° 0 mm 3 mps 765 mmHg 74%
    05:00 +18°C° 0 mm 3 mps 766 mmHg 73%
    06:00 +18°C° 0 mm 3 mps 766 mmHg 73%
    07:00 +19°C° 0 mm 3 mps 767 mmHg 72%
    08:00 +20°C° 0 mm 3 mps 767 mmHg 67%
    09:00 +21°C° 0 mm 4 mps 767 mmHg 62%
    10:00 +23°C° 0 mm 4 mps 767 mmHg 56%
    11:00 +23°C° 0 mm 4 mps 767 mmHg 55%
    12:00 +23°C° 0 mm 4 mps 767 mmHg 55%
    13:00 +23°C° 0 mm 4 mps 766 mmHg 54%
    14:00 +23°C° 0 mm 4 mps 766 mmHg 56%
    15:00 +23°C° 0 mm 4 mps 766 mmHg 58%
    16:00 +22°C° 0 mm 4 mps 766 mmHg 60%
    17:00 +21°C° 0 mm 3 mps 766 mmHg 65%
    18:00 +20°C° 0 mm 3 mps 766 mmHg 70%
    19:00 +18°C° 0 mm 2 mps 766 mmHg 74%
    20:00 +18°C° 0 mm 2 mps 767 mmHg 76%
    21:00 +17°C° 0 mm 2 mps 767 mmHg 78%
    22:00 +17°C° 0 mm 2 mps 767 mmHg 79%
    23:00 +18°C° 0 mm 1 mps 766 mmHg 82%

    28 March, Thursday

    Time Temperature Precipitation Wind Pressure Humidity
    00:00 +16°C° 0 mm 1 mps 766 mmHg 84%
    01:00 +15°C° 0 mm 0 mps 766 mmHg 86%
    02:00 +15°C° 0 mm 1 mps 765 mmHg 87%
    03:00 +15°C° 0 mm 1 mps 765 mmHg 88%
    04:00 +15°C° 0 mm 1 mps 765 mmHg 89%
    05:00 +16°C° 0 mm 1 mps 765 mmHg 87%
    06:00 +16°C° 0 mm 1 mps 765 mmHg 85%
    07:00 +17°C° 0 mm 2 mps 765 mmHg 83%
    08:00 +20°C° 0 mm 1 mps 765 mmHg 73%
    09:00 +23°C° 0 mm 1 mps 765 mmHg 62%
    10:00 +26°C° 0 mm 1 mps 765 mmHg 52%
    11:00 +27°C° 0 mm 2 mps 764 mmHg 52%
    12:00 +27°C° 0 mm 2 mps 763 mmHg 51%
    13:00 +28°C° 0 mm 3 mps 762 mmHg 50%
    14:00 +28°C° 0 mm 3 mps 762 mmHg 52%
    15:00 +27°C° 0 mm 4 mps 761 mmHg 54%
    16:00 +27°C° 0 mm 4 mps 761 mmHg 56%
    17:00 +25°C° 0 mm 4 mps 761 mmHg 63%
    18:00 +23°C° 0 mm 4 mps 761 mmHg 70%
    19:00 +21°C° 0 mm 4 mps 761 mmHg 77%
    20:00 +21°C° 0 mm 4 mps 762 mmHg 80%
    21:00 +20°C° 0 mm 4 mps 762 mmHg 84%
    22:00 +19°C° 0 mm 4 mps 762 mmHg 87%
    23:00 +19°C° 0 mm 3 mps 761 mmHg 88%

    29 March, Friday

    Time Temperature Precipitation Wind Pressure Humidity
    00:00 +19°C° 0 mm 3 mps 761 mmHg 89%
    01:00 +18°C° 0 mm 3 mps 760 mmHg 90%
    02:00 +18°C° 0 mm 3 mps 760 mmHg 91%
    03:00 +18°C° 0 mm 3 mps 759 mmHg 91%
    04:00 +18°C° 0 mm 3 mps 759 mmHg 92%
    05:00 +18°C° 0 mm 3 mps 759 mmHg 90%
    06:00 +19°C° 0 mm 2 mps 759 mmHg 89%
    07:00 +19°C° 0 mm 2 mps 759 mmHg 87%
    08:00 +20°C° 0.1 mm 2 mps 759 mmHg 83%
    09:00 +21°C° 0.1 mm 2 mps 759 mmHg 80%
    10:00 +23°C° 0.1 mm 2 mps 758 mmHg 77%
    11:00 +25°C° 0.1 mm 2 mps 757 mmHg 69%
    12:00 +28°C° 0.1 mm 2 mps 756 mmHg 62%
    13:00 +30°C° 0.1 mm 2 mps 755 mmHg 54%
    14:00 +29°C° 0.2 mm 2 mps 755 mmHg 59%
    15:00 +28°C° 0.2 mm 3 mps 754 mmHg 64%
    16:00 +28°C° 0.2 mm 4 mps 753 mmHg 69%
    17:00 +26°C° 0.5 mm 3 mps 754 mmHg 77%
    18:00 +24°C° 0.5 mm 3 mps 754 mmHg 86%
    19:00 +22°C° 0.5 mm 3 mps 754 mmHg 94%
    20:00 +21°C° 0 mm 2 mps 754 mmHg 93%
    21:00 +21°C° 0 mm 2 mps 754 mmHg 93%
    22:00 +21°C° 0 mm 2 mps 754 mmHg 93%
    23:00 +21°C° 1.9 mm 3 mps 754 mmHg 94%

    30 March, Saturday

    Time Temperature Precipitation Wind Pressure Humidity
    00:00 +21°C° 1.9 mm 4 mps 753 mmHg 95%
    01:00 +20°C° 1.9 mm 4 mps 753 mmHg 96%
    02:00 +20°C° 4.2 mm 5 mps 753 mmHg 96%
    03:00 +20°C° 4.2 mm 6 mps 753 mmHg 96%
    04:00 +18°C° 4.2 mm 7 mps 754 mmHg 96%
    05:00 +19°C° 1 mm 6 mps 754 mmHg 95%
    06:00 +19°C° 1 mm 6 mps 755 mmHg 94%
    07:00 +17°C° 1 mm 6 mps 756 mmHg 94%
    08:00 +19°C° 0.2 mm 6 mps 756 mmHg 91%
    09:00 +20°C° 0.2 mm 6 mps 756 mmHg 88%
    10:00 +20°C° 0.2 mm 7 mps 757 mmHg 84%
    11:00 +21°C° 0.1 mm 7 mps 757 mmHg 79%
    12:00 +21°C° 0.1 mm 7 mps 757 mmHg 74%
    13:00 +22°C° 0.1 mm 7 mps 757 mmHg 68%
    14:00 +22°C° 0.1 mm 7 mps 757 mmHg 68%
    15:00 +22°C° 0.1 mm 7 mps 757 mmHg 67%
    16:00 +22°C° 0.1 mm 7 mps 758 mmHg 67%
    17:00 +20°C° 0 mm 6 mps 758 mmHg 72%
    18:00 +19°C° 0 mm 5 mps 759 mmHg 77%
    19:00 +18°C° 0 mm 4 mps 760 mmHg 83%
    20:00 +18°C° 0 mm 4 mps 760 mmHg 82%
    21:00 +18°C° 0 mm 3 mps 761 mmHg 81%
    22:00 +18°C° 0 mm 3 mps 761 mmHg 80%
    23:00 +18°C° 0 mm 3 mps 761 mmHg 80%
    Show more